Corpus Christi, TX

10:16 AM CST on February 25, 2017 (GMT -0600)
Corpus Christi International

Weather History for KCRP - January, 2015

Change the Weather History Date:

Tuesday, January 6, 2015

  Actual Average Record
Temperature  
Mean Temperature 52 °F 57 °F  
Max Temperature 67 °F 66 °F 85 °F (1994)
Min Temperature 37 °F 47 °F 30 °F (1972)
Degree Days  
Heating Degree Days 13 9  
Month to date heating degree days 102 54  
Since 1 July heating degree days 417 405  
Cooling Degree Days 0 1  
Month to date cooling degree days 0 6  
Year to date cooling degree days 0 6  
Growing Degree Days 2 (Base 50)    
Moisture  
Dew Point 43 °F    
Average Humidity 70    
Maximum Humidity 92    
Minimum Humidity 48    
Precipitation  
Precipitation 0.00 in 0.05 in 1.42 in (1943)
Month to date precipitation 0.20 0.32  
Year to date precipitation 0.20 0.32  
Snow  
Snow 0.00 in - - ()
Month to date snowfall 0.0  
Since 1 July snowfall 0.0  
Snow Depth 0.00 in    
Sea Level Pressure  
Sea Level Pressure 30.39 in    
Wind  
Wind Speed 5 mph (NE)    
Max Wind Speed 12 mph    
Max Gust Speed 14 mph    
Visibility 10 miles    
Events      
T = Trace of Precipitation, MM = Missing Value Source: NWS Daily Summary

Daily Weather History Graph

Daily Weather History Graph

Search for Another Location

Airport or City:

Trip Planner

Search our weather history database for the weather conditions in past years. The results will help you decide how hot, cold, wet, or windy it might be!

Date:

Astronomy

Jan. 06, 2015 Rise Set
Actual Time 7:21 AM CST 5:49 PM CST
Civil Twilight 6:56 AM CST 6:15 PM CST
Nautical Twilight 6:27 AM CST 6:44 PM CST
Astronomical Twilight 5:58 AM CST 7:12 PM CST
Moon 7:28 PM CST (1/6) 8:09 AM CST (1/6)
Length of Visible Light 11h 18m
Length of Day
10h 27m
Full, 98% of the Moon is Illuminated
Jan 6
Full
Jan 13
Last Quarter
Jan 20
New
Jan 26
First Quarter
Feb 3
Full

Hourly Weather History & Observations

Time (CST) Temp. Windchill Dew Point Humidity Pressure Visibility Wind Dir Wind Speed Gust Speed Precip Events Conditions
12:51 AM 39.0 °F 35.7 °F 35.1 °F 86% 30.48 in 10.0 mi NW 4.6 mph - N/A   Mostly Cloudy
1:51 AM 39.0 °F - 36.0 °F 89% 30.46 in 10.0 mi Calm Calm - N/A   Mostly Cloudy
2:51 AM 37.9 °F 32.7 °F 35.1 °F 89% 30.45 in 10.0 mi WNW 6.9 mph - N/A   Partly Cloudy
3:51 AM 37.9 °F 33.5 °F 35.1 °F 89% 30.43 in 10.0 mi West 5.8 mph - N/A   Scattered Clouds
4:51 AM 37.9 °F 33.5 °F 36.0 °F 93% 30.42 in 10.0 mi WNW 5.8 mph - N/A   Scattered Clouds
5:51 AM 39.0 °F 36.8 °F 37.0 °F 93% 30.41 in 10.0 mi NW 3.5 mph - N/A   Mostly Cloudy
6:51 AM 39.0 °F 36.8 °F 36.0 °F 89% 30.42 in 10.0 mi NNW 3.5 mph - N/A   Scattered Clouds
7:51 AM 39.9 °F 37.8 °F 37.0 °F 89% 30.44 in 10.0 mi NE 3.5 mph - N/A   Mostly Cloudy
8:51 AM 45.0 °F - 39.0 °F 80% 30.47 in 10.0 mi Calm Calm - N/A   Mostly Cloudy
9:51 AM 48.9 °F - 39.9 °F 71% 30.49 in 10.0 mi NNW 3.5 mph - N/A   Mostly Cloudy
10:51 AM 53.6 °F - 37.4 °F 54% 30.46 in 10.0 mi Calm Calm - N/A   Mostly Cloudy
11:51 AM 57.9 °F - 43.0 °F 58% 30.43 in 10.0 mi SW 4.6 mph - N/A   Mostly Cloudy
12:51 PM 63.0 °F - 46.0 °F 54% 30.38 in 10.0 mi Variable 4.6 mph - N/A   Mostly Cloudy
1:51 PM 64.0 °F - 44.1 °F 48% 30.35 in 10.0 mi SW 5.8 mph - N/A   Mostly Cloudy
2:51 PM 64.0 °F - 44.1 °F 48% 30.33 in 10.0 mi East 4.6 mph - N/A   Mostly Cloudy
3:51 PM 63.0 °F - 46.0 °F 54% 30.33 in 10.0 mi East 10.4 mph - N/A   Mostly Cloudy
4:51 PM 59.0 °F - 46.9 °F 64% 30.35 in 10.0 mi East 10.4 mph - N/A   Overcast
5:51 PM 57.0 °F - 48.0 °F 72% 30.34 in 10.0 mi East 9.2 mph - N/A   Mostly Cloudy
6:51 PM 55.0 °F - 48.9 °F 80% 30.34 in 10.0 mi East 6.9 mph - N/A   Mostly Cloudy
7:51 PM 54.0 °F - 48.9 °F 83% 30.35 in 10.0 mi East 5.8 mph - N/A   Mostly Cloudy
8:51 PM 54.0 °F - 48.9 °F 83% 30.34 in 10.0 mi East 6.9 mph - N/A   Mostly Cloudy
9:51 PM 53.1 °F - 48.9 °F 86% 30.34 in 10.0 mi East 6.9 mph - N/A   Mostly Cloudy
10:51 PM 53.1 °F - 48.9 °F 86% 30.34 in 10.0 mi East 4.6 mph - N/A   Mostly Cloudy
11:51 PM 51.1 °F - 48.0 °F 89% 30.35 in 10.0 mi NNE 4.6 mph - N/A   Mostly Cloudy